This demonstration page uses our WeatherBlox Daily Observations layout. Learn more.

Left ArrowRight Arrow

44.8408, -93.29828

Hourly Observations for July 8, 2022

Temp ( °F °C ) Dew Point ( °F °C ) Humidity (%) Winds ( mph kmh ) Pressure ( in mb ) Visibility ( mi km ) Precip ( " mm )
12:53 am 00:53 Cloudy with Light Rain 75 23.9 72 22.2 90 90 NW 6 9 29.98 1015 10 16 0.00 0.00
1:17 am 01:17 Cloudy with Light Rain 75 23.9 72 22.2 90 90 NW 6 9 29.98 1015 5 8 0.02 0.51
1:27 am 01:27 Cloudy with Light Rain 74 23.3 72 22.2 94 94 NW 6 9 29.97 1015 7 11 0.03 0.76
1:42 am 01:42 Cloudy with Light Rain 74 23.3 72 22.2 94 94 NW 3 6 29.98 1015 9 14 0.04 1.02
1:53 am 01:53 Cloudy with Light Rain 74 23.3 72 22.2 94 94 W 3 6 29.99 1016 6 10 0.04 1.02
2:53 am 02:53 Cloudy with Light Rain 74 23.3 72 22.2 94 94 NW 5 7 29.99 1016 8 13 0.01 0.25
3:53 am 03:53 Cloudy with Light Rain 73 22.8 71 21.7 94 94 NNW 6 9 29.98 1015 10 16 0.01 0.25
4:53 am 04:53 Cloudy 73 22.8 69 20.6 87 87 NNW 6 9 30.00 1016 10 16 0.00 0.00
5:53 am 05:53 Cloudy 72 22.2 69 20.6 91 91 N 7 11 30.01 1016 10 16 0.00 0.00
6:53 am 06:53 Cloudy 72 22.2 69 20.6 91 91 NNE 6 9 30.01 1016 10 16 0.00 0.00
7:53 am 07:53 Mostly Cloudy 73 22.8 68 20 84 84 NE 10 17 30.04 1017 10 16 0.00 0.00
8:53 am 08:53 Mostly Cloudy 75 23.9 68 20 79 79 NE 7 11 30.06 1018 10 16 0.00 0.00
9:53 am 09:53 Mostly Cloudy 77 25 68 20 74 74 ENE 9 15 30.06 1018 10 16 0.00 0.00
10:07 am 10:07 Mostly Cloudy 77 25 69 20.6 77 77 E 8 13 30.04 1017 10 16 0.00 0.00
10:53 am 10:53 Mostly Cloudy 79 26.1 69 20.6 72 72 E 12 19 30.07 1018 10 16 0.00 0.00
11:53 am 11:53 Cloudy 77 25 67 19.4 71 71 ENE 14 22 30.09 1019 10 16 0.00 0.00
12:53 pm 12:53 Cloudy 75 23.9 67 19.4 76 76 E 13 20 30.10 1019 10 16 0.00 0.00
1:53 pm 13:53 Cloudy 78 25.6 66 18.9 67 67 E 14 22 30.10 1019 10 16 0.00 0.00
2:53 pm 14:53 Mostly Cloudy 79 26.1 66 18.9 65 65 NE 12 19 30.09 1019 10 16 0.00 0.00
3:13 pm 15:13 Mostly Cloudy 80 26.7 66 18.9 62 62 E 9 15 30.07 1018 10 16 0.00 0.00
3:21 pm 15:21 Partly Cloudy 80 26.7 66 18.9 62 62 E 8 13 30.07 1018 10 16 0.00 0.00
3:53 pm 15:53 Mostly Cloudy 80 26.7 66 18.9 62 62 ESE 8 13 30.10 1019 10 16 0.00 0.00
4:09 pm 16:09 Mostly Cloudy 81 27.2 66 18.9 61 61 E 8 13 30.08 1018 10 16 0.00 0.00
4:53 pm 16:53 Partly Cloudy 83 28.3 66 18.9 57 57 E 12 19 30.10 1019 10 16 0.00 0.00
5:53 pm 17:53 Mostly Cloudy 81 27.2 65 18.3 58 58 ESE 8 13 30.10 1019 10 16 0.00 0.00
6:53 pm 18:53 Mostly Sunny 80 26.7 64 17.8 58 58 ESE 10 17 30.11 1020 10 16 0.00 0.00
7:53 pm 19:53 Partly Cloudy 79 26.1 64 17.8 60 60 SE 7 11 30.11 1020 10 16 0.00 0.00
8:53 pm 20:53 Mostly Sunny 77 25 65 18.3 66 66 SE 7 11 30.12 1020 10 16 0.00 0.00
9:53 pm 21:53 Mostly Clear 75 23.9 65 18.3 71 71 SE 7 11 30.13 1020 10 16 0.00 0.00
10:53 pm 22:53 Mostly Clear 73 22.8 65 18.3 76 76 SSE 3 6 30.16 1021 10 16 0.00 0.00
11:53 pm 23:53 Clear 72 22.2 65 18.3 79 79 SE 3 6 30.17 1022 10 16 0.00 0.00

Powered by AerisWeather